Weather History for Columbia, MO

Change the Weather History Date:

Thursday, November 1, 2012

  Actual Average Record
Temperature  
Mean Temperature 54 °F 51 °F  
Max Temperature 69 °F 61 °F 84 °F (1938)
Min Temperature 39 °F 41 °F 16 °F (1895)
Degree Days  
Heating Degree Days 11 14  
Month to date heating degree days 11 14  
Since 1 July heating degree days 408 379  
Cooling Degree Days 0 0  
Month to date cooling degree days 0 0  
Year to date cooling degree days 1893 1247  
Growing Degree Days 4 (Base 50)    
Moisture  
Dew Point 37 °F    
Average Humidity 57    
Maximum Humidity 76    
Minimum Humidity 37    
Precipitation  
Precipitation 0.00 in 0.10 in 2.52 in (1948)
Month to date precipitation 0.00 0.10  
Year to date precipitation 28.15 37.03  
Snow  
Snow 0.00 in 0.00 in 0.10 in (1912)
Month to date snowfall 0.0 0.0  
Since 1 July snowfall 0.0 0.0  
Since 1 September snowfall 0.0 0.0  
Snow Depth 0.00 in    
Sea Level Pressure  
Sea Level Pressure 29.95 in    
Wind  
Wind Speed 6 mph (West)    
Max Wind Speed 14 mph    
Max Gust Speed 18 mph    
Visibility 9 miles    
Events      
T = Trace of Precipitation, MM = Missing Value Source: NWS Daily Summary

Daily Weather History Graph

Daily Weather History Graph

Search for Another Location

Airport:

Trip Planner

Search our weather history database for the weather conditions in past years. The results will help you decide how hot, cold, wet, or windy it might be!

Date:

Astronomy

Nov. 01, 2012 Rise Set
Actual Time 7:36 AM CDT 6:07 PM CDT
Civil Twilight 7:08 AM CDT 6:35 PM CDT
Nautical Twilight 6:37 AM CDT 7:06 PM CDT
Astronomical Twilight 6:06 AM CDT 7:37 PM CDT
Moon 8:06 PM CDT (11/1) 10:08 AM CDT (11/1)
Length of Visible Light 11h 26m
Length of Day
10h 31m
Waning Gibbous, 93% of the Moon is Illuminated
Nov 1
Waning Gibbous
Nov 6
Last Quarter
Nov 13
New
Nov 20
First Quarter
Nov 28
Full

Hourly Weather History & Observations

Time (CDT) Temp. Windchill Dew Point Humidity Pressure Visibility Wind Dir Wind Speed Gust Speed Precip Events Conditions
12:54 AM 45.0 °F 42.6 °F 25.0 °F 46% 30.01 in 6.0 mi WNW 4.6 mph - N/A   Haze
1:54 AM 42.1 °F 40.2 °F 26.1 °F 53% 30.01 in 5.0 mi WNW 3.5 mph - N/A   Haze
2:54 AM 42.1 °F 38.4 °F 27.0 °F 55% 30.01 in 5.0 mi West 5.8 mph - N/A   Haze
3:54 AM 39.9 °F 35.8 °F 27.0 °F 60% 30.00 in 10.0 mi West 5.8 mph - N/A   Clear
4:54 AM 43.0 °F 39.5 °F 28.0 °F 56% 30.00 in 7.0 mi West 5.8 mph - N/A   Clear
5:54 AM 42.1 °F 39.2 °F 30.9 °F 65% 30.01 in 10.0 mi WSW 4.6 mph - N/A   Clear
6:54 AM 41.0 °F 39.0 °F 32.0 °F 70% 30.01 in 10.0 mi West 3.5 mph - N/A   Clear
7:54 AM 41.0 °F 39.0 °F 33.1 °F 73% 30.02 in 9.0 mi WSW 3.5 mph - N/A   Clear
8:54 AM 43.0 °F - 36.0 °F 76% 30.03 in 10.0 mi Calm Calm - N/A   Overcast
9:54 AM 51.1 °F - 37.9 °F 61% 30.02 in 10.0 mi SW 4.6 mph - N/A   Mostly Cloudy
10:54 AM 57.9 °F - 37.0 °F 46% 30.01 in 10.0 mi WSW 8.1 mph - N/A   Clear
11:54 AM 60.1 °F - 37.9 °F 44% 29.99 in 10.0 mi WSW 6.9 mph - N/A   Clear
12:54 PM 64.0 °F - 39.0 °F 40% 29.96 in 10.0 mi WSW 8.1 mph - N/A   Clear
1:54 PM 66.9 °F - 41.0 °F 39% 29.92 in 10.0 mi WSW 9.2 mph - N/A   Partly Cloudy
2:19 PM 68.0 °F - 42.8 °F 40% 29.91 in 2.0 mi SW 8.1 mph - N/A   Haze
2:27 PM 68.0 °F - 42.8 °F 40% 29.91 in 10.0 mi SW 10.4 mph - N/A   Scattered Clouds
2:54 PM 68.0 °F - 41.0 °F 37% 29.90 in 10.0 mi West 11.5 mph 17.3 mph N/A   Partly Cloudy
3:54 PM 69.1 °F - 42.1 °F 38% 29.88 in 10.0 mi SW 10.4 mph - N/A   Clear
4:54 PM 68.0 °F - 43.0 °F 40% 29.88 in 10.0 mi SW 10.4 mph - N/A   Clear
5:54 PM 64.9 °F - 42.1 °F 43% 29.88 in 10.0 mi West 6.9 mph - N/A   Clear
6:54 PM 62.1 °F - 41.0 °F 46% 29.88 in 10.0 mi Calm Calm - N/A   Clear
7:54 PM 60.1 °F - 41.0 °F 49% 29.88 in 10.0 mi Calm Calm - N/A   Clear
8:54 PM 57.0 °F - 39.9 °F 53% 29.89 in 10.0 mi NW 3.5 mph - N/A   Clear
9:54 PM 54.0 °F - 42.1 °F 64% 29.91 in 10.0 mi NNE 10.4 mph - N/A   Clear
10:54 PM 54.0 °F - 41.0 °F 62% 29.92 in 10.0 mi North 11.5 mph - N/A   Clear
11:54 PM 52.0 °F - 39.9 °F 63% 29.94 in 10.0 mi North 10.4 mph - N/A   Clear